Simultaneous Nadir Overpasses (SNOs) Predictions

Prediction of SNOs between GOES-17 and NOAA-20 Satellite Orbit:

Table of predicted SNOs for the next 14.0 days since TLE Epoch: 2/1/2025
Index Date Time (GOES-17) GOES-17 Lat,Lon NOAA-20 Lat,Lon Distance(km) Time Diff (sec)
1 02/01/2025 20:09:44 -0.04,-104.64 0.70,-101.35 374.51 80
2 02/03/2025 08:31:33 0.04,-104.71 0.47,-106.62 218.48 80
3 02/04/2025 08:10:08 0.04,-104.71 -0.55,-102.09 298.38 80
4 02/05/2025 20:32:03 -0.05,-104.66 -0.67,-107.39 311.62 80
5 02/06/2025 20:15:59 -0.05,-104.66 0.36,-102.86 205.44 80
6 02/08/2025 08:37:47 0.06,-104.73 0.80,-108.13 387.34 80
7 02/09/2025 08:16:22 0.06,-104.73 -0.17,-103.59 129.52 80
8 02/10/2025 20:38:17 -0.07,-104.68 -1.03,-108.89 480.72 80
9 02/11/2025 20:22:13 -0.07,-104.68 0.00,-104.36 36.65 80
10 02/14/2025 08:25:15 0.07,-104.77 0.16,-105.10 37.51 80
